GW3555 Weather Reports


Display with metric or nautical units.
time (UTC)temp
F
wind
direction
speed
MPH
gust
MPH
rain 1hr
in
rain 24hr
in
rain mn
in
humidity
%
barometer
mb
20260905052543 51 241 2.0 3.0 0.00 0.00 0.00 79 1017.1
20260905052019 51 224 0.0 3.0 0.00 0.00 0.00 80 1017.2
20260905051601 51 240 2.0 3.0 0.00 0.00 0.00 81 1017.2
20260905051023 51 236 2.0 3.0 0.00 0.00 0.00 80 1017.2
20260905050532 52 233 1.0 3.0 0.00 0.00 0.00 79 1017.1
20260905050100 52 233 1.0 3.0 0.00 0.00 0.00 80 1017.1
20260905045528 52 226 2.0 3.0 0.00 0.00 0.00 79 1016.9
20260905045030 52 233 1.0 2.0 0.00 0.00 0.00 78 1016.9
20260905044626 52 234 1.0 4.0 0.00 0.00 0.00 78 1016.8
20260905044031 52 222 2.0 4.0 0.00 0.00 0.00 78 1016.9
20260905043539 52 230 2.0 3.0 0.00 0.00 0.00 77 1016.9
20260905043131 53 226 1.0 3.0 0.00 0.00 0.00 77 1017.0
20260905042524 53 223 2.0 3.0 0.00 0.00 0.00 77 1017.0
20260905042029 53 245 1.0 3.0 0.00 0.00 0.00 78 1016.9
20260905041602 53 226 1.0 3.0 0.00 0.00 0.00 78 1016.8
20260905041029 53 238 0.0 0.0 0.00 0.00 0.00 78 1016.8
20260905040520 53 221 0.0 0.0 0.00 0.00 0.00 77 1016.8
20260905040128 53 225 0.0 0.0 0.00 0.00 0.00 77 1016.7
20260905035520 53 225 0.0 4.0 0.00 0.00 0.00 78 1016.7
20260905035044 53 198 1.0 4.0 0.00 0.00 0.00 78 1016.6
20260905034607 53 225 1.0 3.0 0.00 0.00 0.00 77 1016.5
20260905034042 53 225 1.0 4.0 0.00 0.00 0.00 77 1016.5
20260905033531 53 226 2.0 3.0 0.00 0.00 0.00 77 1016.5
20260905033138 53 232 2.0 3.0 0.00 0.00 0.00 77 1016.5
20260905032526 53 225 2.0 3.0 0.00 0.00 0.00 77 1016.5
20260905032038 54 232 0.0 3.0 0.00 0.00 0.00 77 1016.5
20260905031609 54 235 2.0 3.0 0.00 0.00 0.00 77 1016.2
20260905031045 54 240 2.0 3.0 0.00 0.00 0.00 77 1016.1
20260905030534 54 221 0.0 3.0 0.00 0.00 0.00 76 1016.2
20260905030128 55 228 1.0 3.0 0.00 0.00 0.00 76 1016.1
20260905025521 55 223 2.0 3.0 0.00 0.00 0.00 74 1016.0
20260905025027 55 242 1.0 3.0 0.00 0.00 0.00 73 1015.9
20260905024625 55 213 1.0 3.0 0.00 0.00 0.00 70 1015.9
20260905024033 55 243 1.0 3.0 0.00 0.00 0.00 75 1015.8
20260905023540 55 232 1.0 3.0 0.00 0.00 0.00 75 1015.8
20260905023134 56 238 2.0 3.0 0.00 0.00 0.00 75 1015.7
20260905022532 56 229 1.0 3.0 0.00 0.00 0.00 73 1015.7
20260905022018 56 232 1.0 3.0 0.00 0.00 0.00 72 1015.7
20260905021633 57 233 0.0 3.0 0.00 0.00 0.00 71 1015.8
20260905021023 57 226 0.0 0.0 0.00 0.00 0.00 71 1015.7
20260905020522 57 224 0.0 0.0 0.00 0.00 0.00 67 1015.7
20260905020133 57 221 0.0 0.0 0.00 0.00 0.00 66 1015.5
20260905015530 58 206 0.0 3.0 0.00 0.00 0.00 64 1015.4
20260905015030 58 195 1.0 3.0 0.00 0.00 0.00 68 1015.3
20260905014622 58 245 0.0 3.0 0.00 0.00 0.00 69 1015.2
20260905014018 58 250 1.0 3.0 0.00 0.00 0.00 71 1015.1
20260905013528 58 246 0.0 1.0 0.00 0.00 0.00 72 1015.0
20260905013103 58 245 0.0 3.0 0.00 0.00 0.00 71 1014.9
20260905012540 58 246 2.0 3.0 0.00 0.00 0.00 71 1015.0
20260905012041 59 249 1.0 3.0 0.00 0.00 0.00 69 1014.8
20260905011605 59 246 1.0 3.0 0.00 0.00 0.00 69 1014.9
20260905011024 59 246 2.0 3.0 0.00 0.00 0.00 69 1015.0
20260905010537 60 236 1.0 3.0 0.00 0.00 0.00 68 1014.9
20260905010135 60 247 0.0 3.0 0.00 0.00 0.00 65 1015.0
20260905005531 60 254 1.0 3.0 0.00 0.00 0.00 64 1014.8
20260905005028 61 231 0.0 2.0 0.00 0.00 0.00 61 1014.7
20260905004625 61 227 0.0 2.0 0.00 0.00 0.00 63 1014.8
20260905004032 61 227 0.0 2.0 0.00 0.00 0.00 59 1014.7
20260905003531 61 236 1.0 3.0 0.00 0.00 0.00 58 1014.7
20260905003134 62 183 1.0 3.0 0.00 0.00 0.00 55 1014.6
20260905002527 62 197 0.0 1.0 0.00 0.00 0.00 59 1014.7
20260905002022 62 176 0.0 2.0 0.00 0.00 0.00 56 1014.6
20260905001601 62 180 0.0 2.0 0.00 0.00 0.00 53 1014.6
20260905001036 62 166 0.0 2.0 0.00 0.00 0.00 52 1014.5
20260905000528 62 147 0.0 2.0 0.00 0.00 0.00 52 1014.6
20260905000126 62 75 0.0 3.0 0.00 0.00 0.00 51 1014.5
20260904235529 62 213 0.0 3.0 0.00 0.00 0.00 52 1014.5
20260904235027 62 182 0.0 5.0 0.00 0.00 0.00 51 1014.5
20260904234616 62 221 0.0 5.0 0.00 0.00 0.00 53 1014.6
20260904234021 62 223 2.0 6.0 0.00 0.00 0.00 51 1014.4
20260904233538 62 200 2.0 4.0 0.00 0.00 0.00 49 1014.5
20260904233127 62 190 1.0 4.0 0.00 0.00 0.00 49 1014.5
20260904232532 62 156 2.0 5.0 0.00 0.00 0.00 49 1014.5
20260904232043 63 244 0.0 5.0 0.00 0.00 0.00 48 1014.4
20260904231635 63 200 1.0 7.0 0.00 0.00 0.00 49 1014.4
20260904231032 63 221 1.0 4.0 0.00 0.00 0.00 49 1014.6
20260904230525 63 174 0.0 5.0 0.00 0.00 0.00 49 1014.4
20260904230128 63 169 2.0 7.0 0.00 0.00 0.00 49 1014.4
20260904225536 63 196 0.0 5.0 0.00 0.00 0.00 50 1014.4
20260904225026 63 110 1.0 4.0 0.00 0.00 0.00 53 1014.4
20260904224634 63 165 0.0 3.0 0.00 0.00 0.00 51 1014.4
20260904224028 63 313 0.0 4.0 0.00 0.00 0.00 50 1014.4
20260904223528 64 315 1.0 5.0 0.00 0.00 0.00 49 1014.6
20260904223107 64 203 1.0 5.0 0.00 0.00 0.00 50 1014.5
20260904222537 64 5 1.0 5.0 0.00 0.00 0.00 50 1014.4
20260904222029 65 45 1.0 4.0 0.00 0.00 0.00 48 1014.5
20260904221638 65 165 1.0 6.0 0.00 0.00 0.00 49 1014.3
20260904221031 65 62 2.0 6.0 0.00 0.00 0.00 51 1014.2
20260904220526 64 30 1.0 5.0 0.00 0.00 0.00 53 1014.2
20260904220133 64 81 1.0 5.0 0.00 0.00 0.00 50 1014.4
20260904215534 64 32 1.0 6.0 0.00 0.00 0.00 49 1014.4
20260904215037 65 208 0.0 6.0 0.00 0.00 0.00 50 1014.3
20260904214638 66 352 1.0 5.0 0.00 0.00 0.00 48 1014.4
20260904214028 66 178 1.0 6.0 0.00 0.00 0.00 48 1014.4
20260904213541 66 187 3.0 6.0 0.00 0.00 0.00 45 1014.4
20260904213132 65 24 0.0 4.0 0.00 0.00 0.00 48 1014.2
20260904212529 64 352 1.0 3.0 0.00 0.00 0.00 50 1014.3
20260904212024 64 161 0.0 2.0 0.00 0.00 0.00 50 1014.4
20260904211640 63 44 0.0 7.0 0.00 0.00 0.00 51 1014.4
20260904211028 63 5 0.0 7.0 0.00 0.00 0.00 52 1014.4
20260904210539 63 157 0.0 2.0 0.00 0.00 0.00 55 1014.3
20260904210125 63 161 0.0 3.0 0.00 0.00 0.00 54 1014.3
20260904205530 63 102 1.0 6.0 0.00 0.00 0.00 54 1014.2
20260904205031 63 229 2.0 6.0 0.00 0.00 0.00 55 1014.2
20260904204630 63 104 1.0 7.0 0.00 0.00 0.00 54 1014.3
20260904204038 63 178 0.0 2.0 0.00 0.00 0.00 58 1014.1
20260904203540 63 204 0.0 4.0 0.00 0.00 0.00 55 1014.2
20260904203134 63 94 2.0 4.0 0.00 0.00 0.00 55 1014.3
20260904202523 64 212 1.0 7.0 0.00 0.00 0.00 54 1014.3
20260904202044 64 9 2.0 9.0 0.00 0.00 0.00 57 1014.2
20260904201621 63 130 3.0 9.0 0.00 0.00 0.00 54 1014.0
20260904201037 63 225 2.0 4.0 0.00 0.00 0.00 55 1014.2
20260904200536 62 118 0.0 2.0 0.00 0.00 0.00 59 1014.2
20260904200135 62 22 0.0 4.0 0.00 0.00 0.00 59 1014.4
20260904195527 62 134 1.0 4.0 0.00 0.00 0.00 60 1014.2
20260904195024 63 100 1.0 4.0 0.00 0.00 0.00 55 1014.2
20260904194635 63 229 1.0 6.0 0.00 0.00 0.00 56 1014.3
20260904194045 63 15 2.0 6.0 0.00 0.00 0.00 56 1014.4
20260904193548 62 22 1.0 6.0 0.00 0.00 0.00 60 1014.4
20260904193131 62 182 0.0 6.0 0.00 0.00 0.00 63 1014.5
20260904192536 62 265 1.0 4.0 0.00 0.00 0.00 62 1014.6
20260904192045 62 32 0.0 5.0 0.00 0.00 0.00 59 1014.5
20260904191626 61 67 1.0 5.0 0.00 0.00 0.00 65 1014.4
20260904191025 60 10 2.0 4.0 0.00 0.00 0.00 64 1014.4
20260904190537 60 342 2.0 4.0 0.00 0.00 0.00 61 1014.4
20260904190128 61 73 1.0 4.0 0.00 0.00 0.00 67 1014.5
20260904185535 60 5 1.0 4.0 0.00 0.00 0.00 68 1014.4
20260904185025 60 16 1.0 4.0 0.00 0.00 0.00 69 1014.5
20260904184603 60 348 0.0 4.0 0.00 0.00 0.00 71 1014.5
20260904184035 59 269 2.0 4.0 0.00 0.00 0.00 70 1014.6
20260904183525 58 10 1.0 3.0 0.00 0.00 0.00 73 1014.6
20260904183138 58 34 0.0 2.0 0.00 0.00 0.00 74 1014.6
20260904182540 58 15 0.0 3.0 0.00 0.00 0.00 72 1014.5
20260904182030 58 21 0.0 3.0 0.00 0.00 0.00 74 1014.5
20260904181603 58 43 0.0 2.0 0.00 0.00 0.00 77 1014.5
20260904181025 58 96 0.0 1.0 0.00 0.00 0.00 76 1014.5
20260904180548 58 71 0.0 3.0 0.00 0.00 0.00 76 1014.7
20260904180145 58 84 0.0 3.0 0.00 0.00 0.00 77 1014.7
20260904175531 58 80 0.0 3.0 0.00 0.00 0.00 78 1014.6
20260904175030 58 159 0.0 3.0 0.00 0.00 0.00 76 1014.6
20260904174627 58 184 1.0 3.0 0.00 0.00 0.00 76 1014.8
20260904174036 57 82 0.0 2.0 0.00 0.00 0.00 78 1014.7
20260904173527 56 88 1.0 2.0 0.00 0.00 0.00 77 1014.6
20260904173125 55 117 0.0 0.0 0.00 0.00 0.00 82 1014.4
20260904172533 55 64 0.0 1.0 0.00 0.00 0.00 82 1014.4
20260904172024 54 330 0.0 1.0 0.00 0.00 0.00 84 1014.4
20260904171621 54 350 0.0 2.0 0.00 0.00 0.00 82 1014.2
20260904171044 54 338 0.0 2.0 0.00 0.00 0.00 85 1014.1
20260904170543 54 55 0.0 1.0 0.00 0.00 0.00 87 1014.1
20260904170134 53 153 0.0 1.0 0.00 0.00 0.00 89 1014.2
20260904165528 53 109 0.0 3.0 0.00 0.00 0.00 89 1014.2
20260904165034 52 92 1.0 3.0 0.00 0.00 0.00 89 1014.3
20260904164642 52 178 0.0 0.0 0.00 0.00 0.00 90 1014.2
20260904164028 52 267 0.0 0.0 0.00 0.00 0.00 91 1014.2
20260904163526 51 315 0.0 0.0 0.00 0.00 0.00 92 1014.2
20260904163122 51 56 0.0 0.0 0.00 0.00 0.00 93 1014.1
20260904162528 51 42 0.0 0.0 0.00 0.00 0.00 94 1014.2
20260904162025 51 352 0.0 0.0 0.00 0.00 0.00 93 1014.2
20260904161610 51 178 0.0 0.0 0.00 0.00 0.00 94 1014.2
20260904161024 51 179 0.0 0.0 0.00 0.00 0.00 94 1014.3
20260904160536 50 238 0.0 0.0 0.00 0.00 0.00 94 1014.3
20260904160141 50 238 0.0 1.0 0.00 0.00 0.00 95 1014.3
20260904155519 50 226 0.0 3.0 0.00 0.00 0.00 95 1014.2
20260904155025 50 245 0.0 4.0 0.00 0.00 0.00 95 1014.2
20260904154658 50 153 0.0 4.0 0.00 0.00 0.00 95 1014.2
20260904154028 50 173 1.0 4.0 0.00 0.00 0.00 96 1014.1
20260904153530 50 204 0.0 1.0 0.00 0.00 0.00 96 1014.2
20260904153110 50 211 0.0 2.0 0.00 0.00 0.00 96 1014.1
20260904152536 50 230 0.0 2.0 0.00 0.00 0.00 96 1014.1
20260904152024 49 247 0.0 0.0 0.00 0.00 0.00 96 1014.0
20260904151633 49 247 0.0 0.0 0.00 0.00 0.00 96 1014.1
20260904151040 49 254 0.0 0.0 0.00 0.00 0.00 96 1014.0
20260904150533 49 300 0.0 2.0 0.00 0.00 0.00 96 1014.0
20260904150134 49 300 0.0 3.0 0.00 0.00 0.00 97 1013.9
20260904145533 49 246 0.0 3.0 0.00 0.00 0.00 97 1013.9
20260904145023 49 225 0.0 0.0 0.00 0.00 0.00 97 1013.9
20260904144628 49 263 0.0 0.0 0.00 0.00 0.00 97 1013.9
20260904144026 49 263 0.0 0.0 0.00 0.00 0.00 97 1013.7
20260904143531 49 263 0.0 0.0 0.00 0.00 0.00 96 1013.6
20260904143130 49 263 0.0 0.0 0.00 0.00 0.00 96 1013.6
20260904142531 49 263 0.0 0.0 0.00 0.00 0.00 97 1013.5
20260904142025 49 263 0.0 0.0 0.00 0.00 0.00 97 1013.5
20260904141602 48 263 0.0 0.0 0.00 0.00 0.00 96 1013.4
20260904141028 48 271 0.0 0.0 0.00 0.00 0.00 96 1013.4
20260904140536 48 271 0.0 0.0 0.00 0.00 0.00 96 1013.4
20260904140220 48 271 0.0 0.0 0.00 0.00 0.00 96 1013.3
20260904135541 48 271 0.0 0.0 0.00 0.00 0.00 96 1013.2
20260904135042 48 271 0.0 0.0 0.00 0.00 0.00 96 1013.1
20260904134632 48 271 0.0 0.0 0.00 0.00 0.00 96 1013.0
20260904134040 48 271 0.0 0.0 0.00 0.00 0.00 96 1013.0
20260904133531 48 271 0.0 0.0 0.00 0.00 0.00 96 1012.9
20260904133134 48 271 0.0 0.0 0.00 0.00 0.00 96 1012.8
20260904132531 48 271 0.0 0.0 0.00 0.00 0.00 96 1012.9
20260904132031 48 271 0.0 0.0 0.00 0.00 0.00 96 1012.8
20260904131719 48 271 0.0 0.0 0.00 0.00 0.00 96 1012.8
20260904131017 48 271 0.0 0.0 0.00 0.00 0.00 96 1012.8
20260904130527 48 271 0.0 0.0 0.00 0.00 0.00 96 1012.7
20260904130203 48 271 0.0 0.0 0.00 0.00 0.00 96 1012.6
20260904125534 48 273 0.0 0.0 0.00 0.00 0.00 96 1012.5
20260904125037 48 254 0.0 0.0 0.00 0.00 0.00 96 1012.5
20260904124645 48 228 0.0 0.0 0.00 0.00 0.00 95 1012.5
20260904124020 48 228 0.0 0.0 0.00 0.00 0.00 95 1012.7
20260904123525 48 228 0.0 0.0 0.00 0.00 0.00 95 1012.6
20260904123133 48 228 0.0 0.0 0.00 0.00 0.00 95 1012.4
20260904122525 48 228 0.0 0.0 0.00 0.00 0.00 95 1012.4
20260904122038 48 225 0.0 0.0 0.00 0.00 0.00 95 1012.4
20260904121627 48 225 0.0 0.0 0.00 0.00 0.00 95 1012.4
20260904121037 48 225 0.0 0.0 0.00 0.00 0.00 95 1012.4
20260904120526 48 225 0.0 0.0 0.00 0.00 0.00 95 1012.3
20260904120229 48 225 0.0 0.0 0.00 0.00 0.00 95 1012.3
20260904115525 49 225 0.0 0.0 0.00 0.00 0.00 95 1012.2
20260904115034 49 225 0.0 0.0 0.00 0.00 0.00 94 1012.1
20260904114628 49 225 0.0 0.0 0.00 0.00 0.00 94 1012.0
20260904114038 49 225 0.0 0.0 0.00 0.00 0.00 94 1011.9
20260904113538 49 232 0.0 0.0 0.00 0.00 0.00 95 1011.9
20260904113115 49 279 0.0 0.0 0.00 0.00 0.00 94 1011.8
20260904112533 49 279 0.0 0.0 0.00 0.00 0.00 94 1011.7
20260904112027 49 263 0.0 0.0 0.00 0.00 0.00 94 1011.5
20260904111628 49 263 0.0 0.0 0.00 0.00 0.00 93 1011.4
20260904111028 49 263 0.0 0.0 0.00 0.00 0.00 93 1011.2
20260904110524 49 263 0.0 0.0 0.00 0.00 0.00 93 1011.1
20260904110135 49 263 0.0 0.0 0.00 0.00 0.00 93 1011.2
20260904105542 49 263 0.0 0.0 0.00 0.00 0.00 93 1010.9
20260904105025 49 263 0.0 0.0 0.00 0.00 0.00 93 1010.9
20260904104651 49 263 0.0 0.0 0.00 0.00 0.00 93 1010.8
20260904104025 49 263 0.0 0.0 0.00 0.00 0.00 92 1010.7
20260904103530 50 262 0.0 0.0 0.00 0.00 0.00 93 1010.6
20260904103158 50 251 0.0 0.0 0.00 0.00 0.00 92 1010.5
20260904102530 50 261 0.0 0.0 0.00 0.00 0.00 92 1010.7
20260904102026 50 232 0.0 3.0 0.00 0.00 0.00 92 1010.5
20260904101641 50 232 0.0 3.0 0.00 0.00 0.00 91 1010.6
20260904101041 50 250 1.0 3.0 0.00 0.00 0.00 90 1010.4
20260904100530 50 246 0.0 2.0 0.00 0.00 0.00 90 1010.4
20260904100134 50 246 0.0 2.0 0.00 0.00 0.00 90 1010.5
20260904095524 50 246 1.0 2.0 0.00 0.00 0.00 88 1010.4
20260904095042 50 246 1.0 2.0 0.00 0.00 0.00 87 1010.3
20260904094719 50 246 0.0 3.0 0.00 0.00 0.00 87 1010.3
20260904094037 50 246 1.0 3.0 0.00 0.00 0.00 87 1010.3
20260904093524 50 246 0.0 3.0 0.00 0.00 0.00 87 1010.3
20260904093132 51 242 1.0 3.0 0.00 0.00 0.00 87 1010.3
20260904092533 51 242 0.0 2.0 0.00 0.00 0.00 86 1010.2
20260904092024 51 236 1.0 2.0 0.00 0.00 0.00 87 1010.4
20260904091652 51 236 1.0 3.0 0.00 0.00 0.00 86 1010.4
20260904091038 50 242 2.0 3.0 0.00 0.00 0.00 87 1010.3
20260904090523 50 264 1.0 2.0 0.00 0.00 0.00 88 1010.2
20260904090219 50 246 1.0 3.0 0.00 0.00 0.00 87 1010.2
20260904085538 50 240 1.0 3.0 0.00 0.00 0.00 87 1010.1
20260904085037 50 232 2.0 3.0 0.00 0.00 0.00 86 1010.2
20260904084635 50 248 1.0 3.0 0.00 0.00 0.00 87 1010.3
20260904084026 50 234 1.0 3.0 0.00 0.00 0.00 87 1010.3
20260904083532 50 234 1.0 3.0 0.00 0.00 0.00 87 1010.3
20260904083154 50 242 1.0 3.0 0.00 0.00 0.00 87 1010.3
20260904082530 50 242 2.0 3.0 0.00 0.00 0.00 87 1010.3
20260904082027 50 242 1.0 2.0 0.00 0.00 0.00 88 1010.4
20260904081619 50 242 1.0 3.0 0.00 0.00 0.00 88 1010.4
20260904081034 51 242 1.0 3.0 0.00 0.00 0.00 87 1010.4
20260904080534 51 244 1.0 2.0 0.00 0.00 0.00 87 1010.6
20260904080206 51 244 0.0 2.0 0.00 0.00 0.00 88 1010.5
20260904075853 51 244 0.0 3.0 0.00 0.00 0.00 87 1010.4
20260904075029 51 244 1.0 3.0 0.00 0.00 0.00 87 1010.6
20260904074638 51 244 1.0 3.0 0.00 0.00 0.00 87 1010.4
20260904074046 51 244 2.0 3.0 0.00 0.00 0.00 86 1010.4
20260904073537 51 242 1.0 3.0 0.00 0.00 0.00 86 1010.5
20260904073103 51 232 0.0 3.0 0.00 0.00 0.00 86 1010.4
20260904072527 51 231 1.0 3.0 0.00 0.00 0.00 86 1010.5
20260904072033 52 248 0.0 2.0 0.00 0.00 0.00 86 1010.4
20260904071631 52 229 1.0 2.0 0.00 0.00 0.00 86 1010.3
20260904071029 51 250 1.0 2.0 0.00 0.00 0.00 84 1010.3
20260904070542 51 262 0.0 3.0 0.00 0.00 0.00 88 1010.4
20260904070135 51 248 0.0 3.0 0.00 0.00 0.00 89 1010.3
20260904065528 51 248 1.0 3.0 0.00 0.00 0.00 88 1010.4
20260904065038 51 235 1.0 3.0 0.00 0.00 0.00 88 1010.4
20260904064703 51 240 1.0 3.0 0.00 0.00 0.00 87 1010.3
20260904064038 51 251 1.0 2.0 0.00 0.00 0.00 87 1010.4
20260904063538 51 252 1.0 2.0 0.00 0.00 0.00 89 1010.3
20260904063133 51 252 0.0 2.0 0.00 0.00 0.00 90 1010.3
20260904062530 51 249 1.0 2.0 0.00 0.00 0.00 88 1010.4
20260904062024 51 249 1.0 3.0 0.00 0.00 0.00 88 1010.3
20260904061654 51 252 1.0 3.0 0.00 0.00 0.00 87 1010.2
20260904061035 51 247 1.0 3.0 0.00 0.00 0.00 88 1010.2
20260904060547 51 248 1.0 3.0 0.00 0.00 0.00 88 1010.2
20260904060116 51 252 1.0 3.0 0.00 0.00 0.00 89 1010.3
20260904055525 51 275 1.0 2.0 0.00 0.00 0.00 87 1010.3
20260904055036 51 242 0.0 2.0 0.00 0.00 0.00 87 1010.4
20260904054635 51 265 0.0 0.0 0.00 0.00 0.00 88 1010.2
20260904054044 51 258 0.0 0.0 0.00 0.00 0.00 90 1010.4
20260904053533 51 262 0.0 0.0 0.00 0.00 0.00 91 1010.4
20260904053144 51 258 0.0 1.0 0.00 0.00 0.00 89 1010.3